Regional Weather Roundup
Issued by NWS Nashville, TN

Home | Current Version | Previous Version | Text Only | Print | Product List | Glossary On
Versions: 1 2 3 4 5 6 7 8 9 10 11 12 13 14 15 16 17 18 19 20 21 22 23 24 25 26 27 28 29 30 31 32 33 34 35 36 37 38 39 40 41 42 43 44 45 46 47 48 49 50
000
ASUS44 KOHX 181115
RWROHX
MIDDLE TENNESSEE HOURLY WEATHER ROUNDUP
NATIONAL WEATHER SERVICE NASHVILLE TN
500 AM CST THU DEC 18 2014

NOTE: "FAIR" INDICATES FEW OR NO CLOUDS BELOW 12,000 FEET WITH
NO SIGNIFICANT WEATHER AND/OR OBSTRUCTIONS TO VISIBILITY.

* THESE REPORTS ARE NOT UNDER NWS QUALITY CONTROL AND MAY NOT
  REPORT WEATHER SUCH AS PRECIPITATION AND FOG.


TNZ005>011-023>034-057-059-062>066-078-080-181200
...NORTHERN MIDDLE TENNESSEE...

CITY           SKY/WX    TMP DP  RH WIND       PRES   REMARKS
CLARKSVILLE    FRZ RAIN  32  29  88 E3        30.26R FOG
CROSSVILLE     FRZ RAIN  33  27  78 E3        30.19F
GALLATIN       CLOUDY    31  29  92 CALM      30.25F
DICKSON        CLOUDY    30  28  93 CALM      30.23R
LEBANON        CLOUDY    31  29  92 CALM      30.22F
LIVINGSTON     CLOUDY    28  28 100 CALM      30.21F
NASHVILLE      LGT RAIN  33  31  92 E5        30.26S WCI  29
WEST NASHVILLE   N/A     30  30 100 CALM      30.26S
PORTLAND       CLOUDY    28  27  93 CALM      30.23S
SMYRNA         MIX PCPN  32  31  96 VRB3      30.26F
SPARTA         MOCLDY    30  28  93 CALM      30.21S
$$
TNZ056-058-060-061-075>077-079-093>097-181200
...SOUTHERN MIDDLE TENNESSEE...

CITY           SKY/WX    TMP DP  RH WIND       PRES   REMARKS
LEWISBURG      CLOUDY    32  30  92 CALM      30.23F
MCMINNVILLE    CLOUDY    32  32 100 CALM      30.23R
MURFREESBORO   CLOUDY    32  30  92 CALM      30.25S
SHELBYVILLE    MOCLDY    34  34 100 NE5       30.23F WCI  30
TULLAHOMA      CLOUDY    32  30  93 NE5       30.21F WCI  27
WINCHESTER     CLOUDY    34  30  86 NE5       30.22F WCI  30
$$


...KEY TO REMARKS...
VSB - VISIBILITY IN MILES
WCI - WIND CHILL INDEX
HX  - HEAT INDEX



USA.gov is the U.S. government's official web portal to all federal, state and local government web resources and services.